TimeEST,TemperatureF,Dew PointF,Humidity,Sea Level PressureIn,VisibilityMPH,Wind Direction,Wind SpeedMPH,Gust SpeedMPH,PrecipitationIn,Events,Conditions,WindDirDegrees,DateUTC
12:53 AM,37.0,30.9,79,30.53,10.0,Calm,Calm,-,N/A,,Clear,0,2013-01-10 05:53:00
1:53 AM,33.1,28.9,85,30.52,10.0,Calm,Calm,-,N/A,,Clear,0,2013-01-10 06:53:00
2:53 AM,30.0,28.0,92,30.53,10.0,Calm,Calm,-,N/A,,Clear,0,2013-01-10 07:53:00
3:53 AM,32.0,28.9,88,30.52,10.0,Calm,Calm,-,N/A,,Clear,0,2013-01-10 08:53:00
4:53 AM,30.0,28.9,96,30.51,8.0,Calm,Calm,-,N/A,,Clear,0,2013-01-10 09:53:00
5:53 AM,28.0,27.0,96,30.51,6.0,NE,4.6,-,N/A,,Clear,50,2013-01-10 10:53:00
6:53 AM,28.0,26.1,92,30.53,7.0,North,-9999.0,-,N/A,,Clear,0,2013-01-10 11:53:00
7:53 AM,28.0,26.1,92,30.52,7.0,ENE,8.1,-,N/A,,Clear,60,2013-01-10 12:53:00
8:53 AM,34.0,28.9,82,30.52,10.0,East,8.1,-,N/A,,Clear,80,2013-01-10 13:53:00
9:53 AM,35.1,27.0,72,30.51,10.0,ENE,10.4,-,N/A,,Clear,70,2013-01-10 14:53:00
10:53 AM,36.0,28.0,73,30.51,10.0,East,9.2,-,N/A,,Clear,90,2013-01-10 15:53:00
11:53 AM,37.9,28.9,70,30.49,10.0,ESE,8.1,-,N/A,,Partly Cloudy,110,2013-01-10 16:53:00
12:53 PM,37.9,28.9,70,30.42,10.0,East,11.5,20.7,N/A,,Mostly Cloudy,90,2013-01-10 17:53:00
1:53 PM,39.0,30.0,70,30.40,10.0,East,9.2,-,N/A,,Overcast,90,2013-01-10 18:53:00
2:53 PM,39.0,30.0,70,30.38,10.0,East,9.2,17.3,N/A,,Overcast,90,2013-01-10 19:53:00
3:53 PM,39.0,30.9,73,30.37,10.0,East,9.2,-,N/A,,Overcast,100,2013-01-10 20:53:00
4:53 PM,39.0,32.0,76,30.34,10.0,East,6.9,-,N/A,,Overcast,100,2013-01-10 21:53:00
5:53 PM,39.0,33.1,79,30.33,8.0,ESE,6.9,-,0.00,Rain,Light Rain,110,2013-01-10 22:53:00
6:43 PM,39.2,35.6,87,30.28,2.5,East,4.6,-,0.03,Rain,Light Rain,90,2013-01-10 23:43:00
6:53 PM,37.9,36.0,93,30.30,2.5,East,5.8,-,0.04,Rain,Light Rain,90,2013-01-10 23:53:00
7:04 PM,37.4,35.6,93,30.26,5.0,East,8.1,-,0.00,Rain,Light Rain,80,2013-01-11 00:04:00
7:53 PM,39.0,35.1,86,30.25,9.0,East,10.4,-,0.00,Rain,Light Rain,90,2013-01-11 00:53:00
8:53 PM,39.9,35.1,83,30.21,10.0,East,12.7,19.6,0.01,,Overcast,90,2013-01-11 01:53:00
9:53 PM,42.1,34.0,73,30.17,10.0,ESE,10.4,-,N/A,,Overcast,110,2013-01-11 02:53:00
10:53 PM,43.0,34.0,71,30.15,10.0,ESE,10.4,-,N/A,,Overcast,110,2013-01-11 03:53:00
11:53 PM,44.1,36.0,73,30.13,10.0,ESE,6.9,-,N/A,,Overcast,110,2013-01-11 04:53:00